ZHONGXING-3A

Last updated on Thu Jul 03 2025 00:02:49 GMT+0000 (Coordinated Universal Time)

1 60179U 24122A 25182.91438325 -.00000308 00000+0 00000+0 0 9997 2 60179 0.0297 164.8434 0002239 52.2895 133.8182 1.00270456 3802
UTC large
Height (km)
Speed (km/s)
/
Latitude / Longitude
Inclination (degrees)
Orbital Period (minutes)
Azimuth
Elevation
Range (km)
Doppler Factor

Next 0 passes for location: London (51.5072 / 0.1276)

Sorry there are no passes over London.